Location: Krasnoyarskiy Pitomnik
(51.1333°N, 71.6167°E)
Time: 10:18:26
(UTC+00:00)

Cosmos 1328 - Pass Details

Date: 22 October 2021
Orbit: 529 x 552 km, 82.5° (Epoch: 06 December)

Event Time Altitude Azimuth Distance (km) Brightness Sun altitude
Rises 12:45:19 0° 355° (N) 2,736 7.3 -6.8°
Reaches altitude 10° 12:47:37 10° 3° (N) 1,840 6.4 -7.1°
Maximum altitude 12:51:25 39° 73° (ENE) 846 4.3 -7.7°
Drops below altitude 10° 12:55:13 10° 143° (SE) 1,830 6.2 -8.3°
Sets 12:57:29 0° 151° (SSE) 2,719 7.1 -8.7°
